Flag Weather past 2 weeks in St. Paul, Minnesota, U.S.A.

Now
23 °F

Overcast.


Feels Like: 13 °F
Forecast: 10 / 24 °F
Wind: 9 mph from Southeast

Location: St. Paul Downtown Holman Field

Current Time: Nov 28, 2014 at 4:50:54 PM

Latest Report: Nov 28, 2014 at 3:53 PM


Visibility: 10 mi

Pressure: 29.90 "Hg

Humidity: 74%

Dew point: 16 °F

Location of St. PaulLocation

Historic Weather in St. Paul — Graph

°F

St. Paul temperature yesterday

Maximum temperature yesterday: 11 °F (at 2:53 PM)
Minimum temperature yesterday: -1 °F (at 6:53 AM)
Average temperature yesterday: 6 °F

Past Weeks' High & Low Weather Summary

 TemperatureHumidityPressure
High47 °F (Nov 23, 11:53 AM)100% (Nov 22, 7:53 PM)30.60 "Hg (Nov 22, 7:53 PM)
Low-1 °F (Nov 27, 6:53 AM)49% (Nov 20, 12:53 PM)29.31 "Hg (Nov 24, 2:53 AM)
Average19 °F77%30.04 "Hg
* Reported Nov 13 2:53 PM — Nov 28 2:53 PM, St. Paul, Weather by CustomWeather, © 2014

Note: Actual official high and low records may vary slightly from our data, if they occured in-between our weather recording intervals... More about our weather records

Advertising

St. Paul weather history for previous 24 hours

 ConditionsComfort  
Time TempWeatherWind HumidityBarometerVisibility
2:53 PM
Nov 28
22 °FPartly sunny.10 mph75%29.90 "Hg10 mi
1:53 PM22 °FMore clouds than sun.7 mph68%29.93 "Hg10 mi
12:53 PM21 °FOvercast.12 mph71%29.94 "Hg10 mi
11:53 AM20 °FOvercast.9 mph71%30.00 "Hg10 mi
10:53 AM19 °FOvercast.12 mph71%30.03 "Hg10 mi
9:53 AM17 °FOvercast.5 mph74%30.06 "Hg10 mi
8:53 AM16 °FOvercast.10 mph74%30.04 "Hg10 mi
7:53 AM14 °FOvercast.9 mph77%30.07 "Hg10 mi
6:53 AM14 °FOvercast.9 mph77%30.09 "Hg10 mi
5:53 AM13 °FOvercast.9 mph81%30.11 "Hg10 mi
4:53 AM12 °FOvercast.13 mph84%30.12 "Hg10 mi
3:53 AM11 °FOvercast.13 mph84%30.16 "Hg10 mi
3:01 AM10 °FLight snow. Ice fog.13 mph84%30.16 "Hg3 mi
2:53 AM10 °FLight snow. Ice fog.12 mph84%30.21 "Hg2 mi
1:53 AM8 °FLight snow. Ice fog.9 mph87%30.28 "Hg1 mi
12:53 AM8 °FLight snow. Ice fog.9 mph83%30.31 "Hg2 mi
11:57 PM
Nov 27
8 °FLight snow. Overcast.9 mph76%30.30 "Hg2 mi
10:53 PM8 °FMostly cloudy.8 mph63%30.38 "Hg10 mi
9:53 PM8 °FMostly cloudy.8 mph63%30.39 "Hg10 mi
8:53 PM8 °FOvercast.7 mph66%30.39 "Hg10 mi
7:53 PM7 °FPassing clouds.7 mph70%30.41 "Hg10 mi
6:53 PM7 °FClear.7 mph70%30.44 "Hg10 mi
5:53 PM8 °FClear.7 mph63%30.46 "Hg10 mi
4:53 PM8 °FClear.3 mph57%30.47 "Hg10 mi
Weather by CustomWeather, © 2014

See weather overviewHow to use our weather pages